Simultaneous Nadir Overpasses (SNOs) Predictions

Prediction of SNOs between LANDSAT-8 and NOAA-19 Satellite Orbit:

Table of predicted SNOs for the next 14.0 days since TLE Epoch: 2/25/2023
Index Date (LANDSAT-8) Time (LANDSAT-8) Lat,Lon (LANDSAT-8) SZA (LANDSAT-8 ) Date (NOAA-19) Time (NOAA-19) Lat,Lon (NOAA-19) SZA (NOAA-19 ) Distance(km) Time Diff (sec)
1 02/27/2023 01:39:20 80.94,-167.89 90.89 02/27/2023 01:38:17 80.93,-167.87 90.87 0.90 63
2 02/27/2023 02:28:47 -80.93, -0.32 89.14 02/27/2023 02:29:11 -80.93, -0.45 89.14 2.31 24
3 03/01/2023 08:02:31 80.93, 96.23 90.04 03/01/2023 08:01:56 80.93, 96.38 90.04 2.62 35
4 03/01/2023 08:51:58 -80.93, -96.18 89.99 03/01/2023 08:52:50 -80.93, -96.22 89.97 0.78 52
5 03/03/2023 14:25:41 80.94, 0.57 89.21 03/03/2023 14:25:35 80.93, 0.56 89.19 1.40 6
6 03/05/2023 19:59:34 -80.69, 94.06 92.12 03/05/2023 19:58:20 -80.92, 93.33 92.00 28.68 74
7 03/05/2023 20:48:51 80.94, -95.21 88.35 03/05/2023 20:49:14 80.93, -95.34 88.34 2.65 23
8 03/08/2023 02:22:35 -80.93, 1.21 92.53 03/08/2023 02:21:49 -80.93, 1.15 92.55 1.16 46
9 03/08/2023 03:12:01 80.93, 168.87 87.46 03/08/2023 03:12:53 80.93, 168.69 87.47 3.22 52



Historial Predications of SNOs between LANDSAT-8 and NOAA-19
